When you browse on this site, cookies collect data to enhance your experience and personalize the content and advertising you see.
Visit our Privacy Policy to learn more. By continuing to use the site, you agree to this use of cookies and data.
  • en France
  • Liste des pays
  • À 7 jours
  • Température de l'eau
  • Carte météo
  • Widgets météo
  • user-avatar
    Se connecter

    Météo par heure à Homs

    Ce jour, 22 Août, Jeudi

    Heure Température Précipitation Vent Pression Humidité
    00:00 +21°C° 0 mm 3 m/s 714 mmHg 74%
    01:00 +21°C° 0 mm 2 m/s 714 mmHg 75%
    02:00 +20°C° 0 mm 2 m/s 713 mmHg 78%
    03:00 +20°C° 0 mm 2 m/s 713 mmHg 77%
    04:00 +20°C° 0 mm 2 m/s 713 mmHg 76%
    05:00 +20°C° 0 mm 2 m/s 713 mmHg 75%
    06:00 +24°C° 0 mm 3 m/s 714 mmHg 61%
    07:00 +27°C° 0 mm 3 m/s 714 mmHg 48%
    08:00 +30°C° 0 mm 4 m/s 715 mmHg 35%
    09:00 +33°C° 0 mm 5 m/s 715 mmHg 32%
    10:00 +35°C° 0 mm 5 m/s 715 mmHg 28%
    11:00 +36°C° 0 mm 6 m/s 715 mmHg 25%
    12:00 +38°C° 0 mm 7 m/s 714 mmHg 25%
    13:00 +38°C° 0 mm 7 m/s 714 mmHg 25%
    14:00 +38°C° 0 mm 7 m/s 714 mmHg 25%
    15:00 +36°C° 0 mm 7 m/s 713 mmHg 28%
    16:00 +35°C° 0 mm 7 m/s 713 mmHg 31%
    17:00 +34°C° 0 mm 7 m/s 713 mmHg 34%
    18:00 +30°C° 0 mm 6 m/s 713 mmHg 42%
    19:00 +28°C° 0 mm 5 m/s 713 mmHg 50%
    20:00 +25°C° 0 mm 3 m/s 713 mmHg 58%
    21:00 +25°C° 0 mm 3 m/s 713 mmHg 59%
    22:00 +24°C° 0 mm 3 m/s 712 mmHg 61%
    23:00 +24°C° 0 mm 3 m/s 712 mmHg 63%

    Demain, 23 Août, Vendredi

    Heure Température Précipitation Vent Pression Humidité
    00:00 +23°C° 0 mm 2 m/s 712 mmHg 64%
    01:00 +23°C° 0 mm 2 m/s 712 mmHg 65%
    02:00 +23°C° 0 mm 2 m/s 712 mmHg 66%
    03:00 +21°C° 0 mm 2 m/s 712 mmHg 66%
    04:00 +21°C° 0 mm 2 m/s 712 mmHg 67%
    05:00 +21°C° 0 mm 2 m/s 712 mmHg 67%
    06:00 +25°C° 0 mm 2 m/s 712 mmHg 57%
    07:00 +28°C° 0 mm 2 m/s 713 mmHg 46%
    08:00 +31°C° 0 mm 2 m/s 713 mmHg 36%
    09:00 +34°C° 0 mm 2 m/s 713 mmHg 31%
    10:00 +36°C° 0 mm 3 m/s 713 mmHg 25%
    11:00 +38°C° 0 mm 4 m/s 714 mmHg 20%
    12:00 +38°C° 0 mm 4 m/s 713 mmHg 20%
    13:00 +40°C° 0 mm 5 m/s 713 mmHg 20%
    14:00 +40°C° 0 mm 6 m/s 712 mmHg 20%
    15:00 +39°C° 0 mm 6 m/s 712 mmHg 22%
    16:00 +38°C° 0 mm 6 m/s 712 mmHg 25%
    17:00 +35°C° 0 mm 6 m/s 711 mmHg 28%
    18:00 +33°C° 0 mm 5 m/s 711 mmHg 35%
    19:00 +29°C° 0 mm 4 m/s 712 mmHg 42%
    20:00 +27°C° 0 mm 2 m/s 712 mmHg 49%
    21:00 +26°C° 0 mm 2 m/s 712 mmHg 50%
    22:00 +26°C° 0 mm 1 m/s 712 mmHg 51%
    23:00 +25°C° 0 mm 1 m/s 711 mmHg 52%

    Après-demain, 24 Août, Samedi

    Heure Température Précipitation Vent Pression Humidité
    00:00 +24°C° 0 mm 1 m/s 711 mmHg 53%
    01:00 +24°C° 0 mm 1 m/s 711 mmHg 53%
    02:00 +22°C° 0 mm 0 m/s 711 mmHg 53%
    03:00 +21°C° 0 mm 0 m/s 711 mmHg 54%
    04:00 +21°C° 0 mm 0 m/s 711 mmHg 54%
    05:00 +21°C° 0 mm 0 m/s 711 mmHg 55%
    06:00 +26°C° 0 mm 1 m/s 712 mmHg 46%
    07:00 +29°C° 0 mm 1 m/s 712 mmHg 37%
    08:00 +34°C° 0 mm 2 m/s 713 mmHg 28%
    09:00 +36°C° 0 mm 2 m/s 713 mmHg 25%
    10:00 +37°C° 0 mm 3 m/s 713 mmHg 22%
    11:00 +39°C° 0 mm 3 m/s 713 mmHg 18%
    12:00 +41°C° 0 mm 4 m/s 713 mmHg 19%
    13:00 +41°C° 0 mm 5 m/s 713 mmHg 20%
    14:00 +42°C° 0 mm 6 m/s 712 mmHg 21%
    15:00 +40°C° 0 mm 7 m/s 712 mmHg 25%
    16:00 +38°C° 0 mm 7 m/s 712 mmHg 29%
    17:00 +35°C° 0 mm 7 m/s 712 mmHg 33%
    18:00 +33°C° 0 mm 6 m/s 712 mmHg 41%
    19:00 +29°C° 0 mm 5 m/s 712 mmHg 48%
    20:00 +27°C° 0 mm 4 m/s 712 mmHg 55%
    21:00 +26°C° 0 mm 3 m/s 712 mmHg 57%
    22:00 +26°C° 0 mm 3 m/s 712 mmHg 59%
    23:00 +25°C° 0 mm 3 m/s 712 mmHg 61%

    25 Août, Dimanche

    Heure Température Précipitation Vent Pression Humidité
    00:00 +25°C° 0 mm 3 m/s 712 mmHg 64%
    01:00 +24°C° 0 mm 2 m/s 712 mmHg 67%
    02:00 +24°C° 0 mm 2 m/s 712 mmHg 70%
    03:00 +24°C° 0 mm 2 m/s 712 mmHg 71%
    04:00 +23°C° 0 mm 2 m/s 712 mmHg 72%
    05:00 +23°C° 0 mm 2 m/s 712 mmHg 73%
    06:00 +26°C° 0 mm 2 m/s 712 mmHg 60%
    07:00 +29°C° 0 mm 3 m/s 713 mmHg 47%
    08:00 +33°C° 0 mm 3 m/s 713 mmHg 33%
    09:00 +35°C° 0 mm 4 m/s 714 mmHg 30%
    10:00 +38°C° 0 mm 6 m/s 714 mmHg 27%
    11:00 +40°C° 0 mm 7 m/s 714 mmHg 23%
    12:00 +39°C° 0 mm 8 m/s 714 mmHg 26%
    13:00 +39°C° 0 mm 9 m/s 713 mmHg 29%
    14:00 +38°C° 0 mm 10 m/s 713 mmHg 31%
    15:00 +37°C° 0 mm 9 m/s 713 mmHg 35%
    16:00 +34°C° 0 mm 9 m/s 713 mmHg 38%
    17:00 +33°C° 0 mm 8 m/s 712 mmHg 42%
    18:00 +30°C° 0 mm 7 m/s 713 mmHg 50%
    19:00 +28°C° 0 mm 5 m/s 713 mmHg 59%
    20:00 +26°C° 0 mm 3 m/s 713 mmHg 68%
    21:00 +25°C° 0 mm 3 m/s 713 mmHg 71%
    22:00 +24°C° 0 mm 3 m/s 713 mmHg 73%
    23:00 +24°C° 0 mm 3 m/s 713 mmHg 76%

    26 Août, Lundi

    Heure Température Précipitation Vent Pression Humidité
    00:00 +22°C° 0 mm 3 m/s 713 mmHg 78%
    01:00 +22°C° 0 mm 3 m/s 713 mmHg 79%
    02:00 +21°C° 0 mm 2 m/s 712 mmHg 80%
    03:00 +21°C° 0 mm 2 m/s 712 mmHg 75%
    04:00 +21°C° 0 mm 2 m/s 712 mmHg 71%
    05:00 +21°C° 0 mm 2 m/s 713 mmHg 66%
    06:00 +26°C° 0 mm 2 m/s 713 mmHg 54%
    07:00 +29°C° 0 mm 3 m/s 714 mmHg 41%
    08:00 +33°C° 0 mm 3 m/s 714 mmHg 28%
    09:00 +35°C° 0 mm 4 m/s 714 mmHg 25%
    10:00 +37°C° 0 mm 4 m/s 715 mmHg 22%
    11:00 +39°C° 0 mm 5 m/s 715 mmHg 18%
    12:00 +39°C° 0 mm 6 m/s 714 mmHg 20%
    13:00 +39°C° 0 mm 7 m/s 714 mmHg 22%
    14:00 +39°C° 0 mm 7 m/s 713 mmHg 24%
    15:00 +38°C° 0 mm 7 m/s 713 mmHg 27%
    16:00 +35°C° 0 mm 7 m/s 713 mmHg 31%
    17:00 +34°C° 0 mm 7 m/s 713 mmHg 35%
    18:00 +30°C° 0 mm 5 m/s 713 mmHg 44%
    19:00 +28°C° 0 mm 4 m/s 713 mmHg 53%
    20:00 +25°C° 0 mm 3 m/s 713 mmHg 62%
    21:00 +25°C° 0 mm 3 m/s 713 mmHg 63%
    22:00 +24°C° 0 mm 2 m/s 713 mmHg 63%
    23:00 +24°C° 0 mm 2 m/s 713 mmHg 64%

    27 Août, Mardi

    Heure Température Précipitation Vent Pression Humidité
    00:00 +23°C° 0 mm 2 m/s 713 mmHg 64%
    01:00 +23°C° 0 mm 2 m/s 713 mmHg 64%
    02:00 +23°C° 0 mm 2 m/s 712 mmHg 65%
    03:00 +23°C° 0 mm 2 m/s 712 mmHg 63%
    04:00 +23°C° 0 mm 2 m/s 713 mmHg 61%
    05:00 +23°C° 0 mm 2 m/s 713 mmHg 60%
    06:00 +26°C° 0 mm 2 m/s 713 mmHg 50%
    07:00 +28°C° 0 mm 2 m/s 713 mmHg 40%
    08:00 +31°C° 0 mm 2 m/s 714 mmHg 31%
    09:00 +34°C° 0 mm 3 m/s 714 mmHg 27%
    10:00 +36°C° 0 mm 3 m/s 714 mmHg 24%
    11:00 +38°C° 0 mm 4 m/s 714 mmHg 20%
    12:00 +39°C° 0 mm 5 m/s 714 mmHg 21%
    13:00 +40°C° 0 mm 6 m/s 713 mmHg 22%
    14:00 +40°C° 0 mm 6 m/s 713 mmHg 22%
    15:00 +38°C° 0 mm 6 m/s 713 mmHg 26%
    16:00 +36°C° 0 mm 6 m/s 712 mmHg 30%
    17:00 +34°C° 0 mm 6 m/s 712 mmHg 34%
    18:00 +30°C° 0 mm 5 m/s 712 mmHg 43%
    19:00 +28°C° 0 mm 4 m/s 712 mmHg 52%
    20:00 +25°C° 0 mm 4 m/s 712 mmHg 61%
    21:00 +25°C° 0 mm 3 m/s 712 mmHg 63%
    22:00 +24°C° 0 mm 3 m/s 712 mmHg 65%
    23:00 +24°C° 0 mm 3 m/s 712 mmHg 67%
    Voir plus